FENGYUN 1C DEB, 30021

Orbit data source: Space-Track

FENGYUN 1C DEB, 30021 is space debris in SSO originally from a launch on Mon, 10 May 1999 UTC launched from the Taiyaun Space Center, China (TSC). Fengyun 1C debris stems from the Chinese weather satellite Fengyun-1C, which was intentionally destroyed by a Chinese anti-satellite missile in 2007. This event dramatically increased the amount of space debris, with thousands of trackable fragments posing hazards to satellites and human spaceflight. The Fengyun 1C debris cloud has become a focal point in discussions about space sustainability and the need for international regulations to prevent the creation of new debris.

Loading next visibility...
Identifier
30021, 1999-025MW
Orbit
SSO
Country
Flag of CNCN / PRC
Related business
Manufacturer
Unknown
Mission
Spacecraft
Bus & Motor
Unknown
Mass
Unknown
Launch date (UTC)
1999-05-10 (27 years ago)
Launch vehicle
Unknown
Launch site
Taiyaun Space Center, China (TSC)
Object type
Payload
Rocket body
Debris
Shape & HBR
Unknown shape, 0.3 m
Radar Cross Section
Medium (>0.1 m² and <1 m²)

Expand to show TLE details & history
Last TLE update: 14 hours ago

TLE from 14 hours ago
0 FENGYUN 1C DEB
1 30021U 99025MW  26255.23601108 -.00000096  00000-0 -31639-4 0  9995
2 30021  98.8563 244.9635 0071673 240.9481 131.2271 14.04984897  7730
Epoch: 2026-09-12T05:39Z
TLE epoch observation values (Epoch: 2026-09-12T05:39:51.357Z)
Latitude
12.59578°
Longitude
166.76679°
Altitude
913.203 km
Speed
7.379 km/s
True Right ascension
16h 11m 54s
True Declination
12° 31' 28"
Sunlit
Object was in daylight at epoch
Visualization orbit readout
Latitude
Unknown
Longitude
Unknown
Altitude
Unknown
Speed
Unknown
Apparent Right ascension
Unknown
Apparent Declination
Unknown
Sunlit
N/A
Visualization observer readout
Local Sidereal Time
11:42:03
Azimuth
Unknown
Elevation
Unknown
Doppler factor
Unknown
Orbital elements
Apogee altitude
925.746 km
Perigee altitude
821.793 km
Semi-major axis
7,251.907 km
Eccentricity
0.00717
Inclination
98.8563°
RAAN
244.9635°
Arg. of periapsis
240.9481°
True anomaly
131.84117°
Mean anomaly
131.2271°
Eccentric anomaly
131.5345°
Mean motion
3.51451 °/min
Orbital period
102.43 mins
BSTAR
-0.000031639
Loading maneuver chart data...
Computing Atmospheric mass density...

Documentation

Showing up to 5 results
|